DLH57P LEMD-EDDM

Flight info

Callsign DLH57P
Flight time N/A
Altitude 34000
Route PINAR N870 SEGRE N871 TOPTU DCT TOU DCT GAI DCT MEN DCT NINUN DCT LATAM DCT ETREK DCT LTP DCT SOPLO DCT OMASI DCT KINNI DCT LAMUR DCT KORED DCT NUNRI T103 BETOS BETOS1B
Aircraft A321/M-SDE3FGHIRWY/LB1

Departure

Time N/A
Airport Adolfo Suárez Madrid–Barajas Airport (LEMD)

Arrival

Time 2026-05-07 13:55
Airport Munich Airport (EDDM)
Time Latitude Longitude Altitude Speed Heading
2026-05-07 12:44 44.37961 2.65796 32681 ft 476 kts 57°
2026-05-07 12:44 44.39624 2.69834 32675 ft 480 kts 63°
2026-05-07 12:44 44.42142 2.76804 32668 ft 483 kts 63°
2026-05-07 12:45 44.45534 2.84938 32900 ft 484 kts 57°
2026-05-07 12:45 44.47413 2.88841 33087 ft 484 kts 55°
2026-05-07 12:45 44.49355 2.92686 33266 ft 483 kts 54°
2026-05-07 12:46 44.51311 2.96513 33446 ft 483 kts 54°
2026-05-07 12:46 44.53251 3.00358 33621 ft 483 kts 55°
2026-05-07 12:46 44.55164 3.04241 33813 ft 483 kts 56°
2026-05-07 12:46 44.57049 3.08151 33979 ft 483 kts 56°
2026-05-07 12:47 44.60761 3.16010 33996 ft 483 kts 57°
2026-05-07 12:47 44.64219 3.24115 33996 ft 484 kts 61°
2026-05-07 12:48 44.67405 3.32372 33992 ft 484 kts 62°
2026-05-07 12:48 44.70620 3.40696 33989 ft 485 kts 61°
2026-05-07 12:49 44.73924 3.48970 33997 ft 485 kts 60°
2026-05-07 12:49 44.77249 3.57252 34000 ft 485 kts 60°
2026-05-07 12:50 44.80555 3.65570 34009 ft 486 kts 60°
2026-05-07 12:50 44.83838 3.73897 34017 ft 486 kts 60°
2026-05-07 12:51 44.87098 3.82184 34026 ft 487 kts 60°
2026-05-07 12:51 44.90385 3.90534 34027 ft 487 kts 60°
2026-05-07 12:52 44.93668 3.98897 34028 ft 488 kts 60°
2026-05-07 12:52 44.96945 4.07304 34024 ft 488 kts 60°
2026-05-07 12:53 45.00212 4.15705 34018 ft 488 kts 60°
2026-05-07 12:53 45.03475 4.24122 34013 ft 488 kts 60°
2026-05-07 12:54 45.06737 4.32567 34012 ft 489 kts 60°
2026-05-07 12:54 45.09997 4.41008 34013 ft 489 kts 60°
2026-05-07 12:55 45.13260 4.49467 34014 ft 489 kts 60°
2026-05-07 12:55 45.16513 4.57938 34013 ft 489 kts 60°
2026-05-07 12:56 45.19730 4.66367 34013 ft 490 kts 60°
2026-05-07 12:56 45.22968 4.74868 34015 ft 490 kts 60°
2026-05-07 12:57 45.26202 4.83377 34005 ft 490 kts 60°
2026-05-07 12:57 45.29436 4.91925 34008 ft 490 kts 60°
2026-05-07 12:58 45.32646 5.00441 34009 ft 491 kts 60°
2026-05-07 12:58 45.35885 5.09035 34020 ft 491 kts 60°
2026-05-07 12:59 45.39102 5.17588 34016 ft 491 kts 60°
2026-05-07 12:59 45.42312 5.26174 34014 ft 491 kts 60°
2026-05-07 13:00 45.45506 5.34765 34015 ft 491 kts 60°
2026-05-07 13:00 45.48947 5.43082 34002 ft 488 kts 49°
2026-05-07 13:01 45.53649 5.49949 34000 ft 482 kts 38°
2026-05-07 13:01 45.58667 5.56316 34012 ft 482 kts 38°
2026-05-07 13:02 45.63665 5.62709 34010 ft 482 kts 38°
2026-05-07 13:02 45.68661 5.69124 34017 ft 482 kts 38°
2026-05-07 13:03 45.73644 5.75543 34013 ft 482 kts 38°
2026-05-07 13:03 45.78631 5.81960 34014 ft 481 kts 38°
2026-05-07 13:04 45.83581 5.88325 34012 ft 481 kts 38°
2026-05-07 13:04 45.88548 5.94723 34023 ft 480 kts 38°
2026-05-07 13:05 45.93497 6.01141 34024 ft 479 kts 38°
2026-05-07 13:05 45.98455 6.07580 34025 ft 478 kts 38°
2026-05-07 13:06 46.03396 6.14002 34024 ft 478 kts 39°
2026-05-07 13:06 46.08282 6.20500 34028 ft 479 kts 44°
2026-05-07 13:07 46.12331 6.28187 34022 ft 482 kts 52°
2026-05-07 13:07 46.16172 6.36057 34015 ft 482 kts 52°
2026-05-07 13:08 46.20024 6.43954 34024 ft 481 kts 52°
2026-05-07 13:08 46.23874 6.51883 34017 ft 481 kts 52°
2026-05-07 13:09 46.27718 6.59821 34010 ft 482 kts 52°
2026-05-07 13:09 46.31528 6.67715 34007 ft 482 kts 52°
2026-05-07 13:10 46.35360 6.75672 34017 ft 481 kts 52°
2026-05-07 13:10 46.39182 6.83643 34021 ft 481 kts 52°
2026-05-07 13:11 46.42992 6.91603 34029 ft 481 kts 52°
2026-05-07 13:11 46.46798 6.99575 34025 ft 481 kts 52°
2026-05-07 13:12 46.50622 7.07592 34030 ft 481 kts 52°
2026-05-07 13:12 46.54389 7.15535 34032 ft 480 kts 52°
2026-05-07 13:13 46.58851 7.22612 34026 ft 472 kts 34°
2026-05-07 13:13 46.64419 7.27464 34011 ft 463 kts 20°
2026-05-07 13:14 46.70269 7.31385 34030 ft 463 kts 20°
2026-05-07 13:14 46.76118 7.35348 34018 ft 463 kts 21°
2026-05-07 13:15 46.81787 7.39707 34012 ft 467 kts 32°
2026-05-07 13:15 46.86439 7.46393 34003 ft 475 kts 52°
2026-05-07 13:16 46.89660 7.54883 34004 ft 478 kts 62°
2026-05-07 13:16 46.92631 7.63582 34007 ft 477 kts 62°
2026-05-07 13:17 46.95605 7.72267 34013 ft 477 kts 62°
2026-05-07 13:17 46.98562 7.80980 34020 ft 477 kts 62°
2026-05-07 13:18 47.01475 7.89659 34036 ft 477 kts 62°
2026-05-07 13:18 47.04405 7.98395 34041 ft 477 kts 62°
2026-05-07 13:19 47.07336 8.07117 34042 ft 476 kts 62°
2026-05-07 13:19 47.10252 8.15822 34041 ft 476 kts 62°
2026-05-07 13:20 47.13159 8.24551 34042 ft 476 kts 62°
2026-05-07 13:20 47.16058 8.33289 34040 ft 475 kts 62°
2026-05-07 13:21 47.18924 8.41972 34033 ft 475 kts 62°
2026-05-07 13:21 47.21804 8.50720 34033 ft 475 kts 63°
2026-05-07 13:22 47.24679 8.59473 34051 ft 475 kts 63°
2026-05-07 13:22 47.27550 8.68239 34056 ft 474 kts 63°
2026-05-07 13:23 47.30408 8.77008 34058 ft 474 kts 63°
2026-05-07 13:23 47.33252 8.85730 34063 ft 474 kts 63°
2026-05-07 13:24 47.36106 8.94510 34062 ft 474 kts 63°
2026-05-07 13:24 47.38938 9.03293 34059 ft 474 kts 63°
2026-05-07 13:25 47.41764 9.12088 34053 ft 474 kts 63°
2026-05-07 13:25 47.44592 9.20877 34054 ft 473 kts 63°
2026-05-07 13:26 47.47394 9.29634 34053 ft 473 kts 63°
2026-05-07 13:26 47.50193 9.38435 34047 ft 473 kts 64°
2026-05-07 13:27 47.52991 9.47249 34042 ft 473 kts 64°
2026-05-07 13:27 47.55307 9.54589 34047 ft 473 kts 64°
2026-05-07 13:28 47.57726 9.63631 34042 ft 474 kts 76°
2026-05-07 13:28 47.58366 9.70014 34036 ft 474 kts 88°
2026-05-07 13:28 47.58356 9.73307 34033 ft 474 kts 94°
2026-05-07 13:29 47.57956 9.83051 34040 ft 474 kts 94°
2026-05-07 13:29 47.57564 9.92814 34044 ft 473 kts 94°
2026-05-07 13:30 47.57370 9.97560 34027 ft 460 kts 94°
2026-05-07 13:30 47.57174 10.02329 33213 ft 462 kts 94°
2026-05-07 13:30 47.56978 10.07067 32120 ft 470 kts 94°
2026-05-07 13:30 47.56774 10.11856 31737 ft 462 kts 93°
2026-05-07 13:31 47.56588 10.16131 31239 ft 458 kts 93°
2026-05-07 13:31 47.56399 10.20452 30723 ft 455 kts 93°
2026-05-07 13:31 47.56193 10.25108 30166 ft 452 kts 92°
2026-05-07 13:31 47.55985 10.29750 29561 ft 448 kts 93°
2026-05-07 13:32 47.55779 10.34314 29025 ft 442 kts 93°
2026-05-07 13:32 47.55574 10.38837 28455 ft 438 kts 93°
2026-05-07 13:32 47.55367 10.43319 27893 ft 434 kts 93°
2026-05-07 13:32 47.55170 10.47749 27340 ft 429 kts 91°
2026-05-07 13:33 47.55296 10.52133 26797 ft 424 kts 81°
2026-05-07 13:33 47.55890 10.56388 26267 ft 419 kts 72°
2026-05-07 13:33 47.56892 10.60346 25729 ft 414 kts 63°
2026-05-07 13:33 47.58268 10.64055 25216 ft 409 kts 57°
2026-05-07 13:34 47.59734 10.67668 24669 ft 411 kts 57°
2026-05-07 13:34 47.62744 10.75137 23504 ft 422 kts 58°
2026-05-07 13:34 47.64237 10.78871 22807 ft 420 kts 58°
2026-05-07 13:35 47.65724 10.82601 22126 ft 417 kts 58°
2026-05-07 13:35 47.67214 10.86276 21463 ft 414 kts 55°
2026-05-07 13:35 47.68989 10.89622 20820 ft 410 kts 45°
2026-05-07 13:35 47.71094 10.92451 20188 ft 406 kts 36°
2026-05-07 13:36 47.73277 10.95018 19575 ft 404 kts 37°
2026-05-07 13:36 47.75476 10.97618 18990 ft 402 kts 37°
2026-05-07 13:36 47.77651 11.00197 18418 ft 399 kts 37°
2026-05-07 13:36 47.79817 11.02773 17780 ft 397 kts 37°
2026-05-07 13:37 47.81971 11.05338 17131 ft 395 kts 37°
2026-05-07 13:37 47.84113 11.07891 16499 ft 392 kts 37°
2026-05-07 13:37 47.86220 11.10412 16097 ft 383 kts 37°
2026-05-07 13:37 47.88287 11.12884 16012 ft 383 kts 37°
2026-05-07 13:38 47.90372 11.15367 16024 ft 384 kts 37°
2026-05-07 13:38 47.92462 11.17851 16028 ft 384 kts 36°
2026-05-07 13:38 47.94524 11.20301 16028 ft 384 kts 36°
2026-05-07 13:38 47.96613 11.22785 16027 ft 384 kts 36°
2026-05-07 13:39 47.98706 11.25282 16029 ft 384 kts 37°
2026-05-07 13:39 48.00786 11.27789 16031 ft 385 kts 39°
2026-05-07 13:39 48.02559 11.30803 16032 ft 388 kts 53°
2026-05-07 13:39 48.04098 11.34122 16031 ft 388 kts 54°
2026-05-07 13:40 48.05617 11.37451 16029 ft 388 kts 54°
2026-05-07 13:40 48.07137 11.40790 16027 ft 389 kts 54°
2026-05-07 13:40 48.08637 11.44158 16027 ft 383 kts 58°
2026-05-07 13:40 48.09660 11.47735 16028 ft 366 kts 71°
2026-05-07 13:41 48.10487 11.51376 16026 ft 372 kts 71°
2026-05-07 13:41 48.11316 11.55050 16025 ft 373 kts 71°
2026-05-07 13:41 48.12143 11.58727 16022 ft 373 kts 71°
2026-05-07 13:41 48.12967 11.62403 16021 ft 373 kts 71°
2026-05-07 13:42 48.13795 11.66098 16022 ft 373 kts 71°
2026-05-07 13:42 48.14615 11.69774 15989 ft 373 kts 71°
2026-05-07 13:42 48.15437 11.73457 15737 ft 372 kts 71°
2026-05-07 13:42 48.16257 11.77128 15488 ft 371 kts 71°
2026-05-07 13:43 48.17063 11.80745 15237 ft 370 kts 71°
2026-05-07 13:43 48.17873 11.84392 15035 ft 369 kts 71°
2026-05-07 13:43 48.18672 11.88009 14739 ft 367 kts 71°
2026-05-07 13:43 48.19474 11.91637 14456 ft 366 kts 71°
2026-05-07 13:44 48.20276 11.95261 14166 ft 365 kts 71°
2026-05-07 13:44 48.21076 11.98870 13900 ft 364 kts 71°
2026-05-07 13:44 48.21873 12.02472 13644 ft 363 kts 71°
2026-05-07 13:44 48.22661 12.06051 13247 ft 360 kts 71°
2026-05-07 13:45 48.23438 12.09596 12778 ft 356 kts 71°
2026-05-07 13:45 48.24206 12.13112 12213 ft 351 kts 71°
2026-05-07 13:45 48.24957 12.16550 11653 ft 342 kts 71°
2026-05-07 13:45 48.25684 12.19873 11097 ft 336 kts 71°
2026-05-07 13:46 48.26407 12.23175 10561 ft 330 kts 71°
2026-05-07 13:46 48.27117 12.26423 10021 ft 325 kts 71°
2026-05-07 13:46 48.28021 12.29478 9453 ft 317 kts 52°
2026-05-07 13:46 48.29585 12.31705 8866 ft 306 kts 27°
2026-05-07 13:47 48.31551 12.32702 8298 ft 294 kts
2026-05-07 13:47 48.33559 12.32568 7742 ft 284 kts 342°
2026-05-07 13:47 48.35267 12.31271 7188 ft 273 kts 315°
2026-05-07 13:47 48.36388 12.29038 6647 ft 266 kts 297°
2026-05-07 13:48 48.37232 12.26588 6090 ft 263 kts 295°
2026-05-07 13:48 48.37967 12.24090 5509 ft 259 kts 284°
2026-05-07 13:48 48.38077 12.21443 5209 ft 248 kts 262°
2026-05-07 13:48 48.37531 12.19086 5090 ft 231 kts 248°
2026-05-07 13:49 48.37147 12.16869 5019 ft 207 kts 265°
2026-05-07 13:49 48.37024 12.14747 5035 ft 206 kts 265°
2026-05-07 13:49 48.36885 12.12667 5027 ft 197 kts 265°
2026-05-07 13:49 48.36740 12.10660 5028 ft 184 kts 264°
2026-05-07 13:50 48.36601 12.08762 5040 ft 182 kts 265°
2026-05-07 13:50 48.36461 12.06858 4934 ft 184 kts 264°
2026-05-07 13:50 48.36320 12.04963 4727 ft 181 kts 264°
2026-05-07 13:50 48.36182 12.03100 4506 ft 180 kts 264°
2026-05-07 13:51 48.36040 12.01194 4264 ft 182 kts 265°
2026-05-07 13:51 48.35903 11.99354 4031 ft 168 kts 265°
2026-05-07 13:51 48.35779 11.97710 3814 ft 149 kts 265°
2026-05-07 13:51 48.35669 11.96236 3621 ft 136 kts 265°
2026-05-07 13:52 48.35566 11.94853 3445 ft 134 kts 265°
2026-05-07 13:52 48.35462 11.93462 3268 ft 134 kts 266°
2026-05-07 13:52 48.35352 11.92065 3072 ft 134 kts 264°
2026-05-07 13:52 48.35242 11.90682 2898 ft 132 kts 268°
2026-05-07 13:53 48.35145 11.89289 2693 ft 135 kts 266°
2026-05-07 13:53 48.35045 11.87882 2552 ft 133 kts 266°
2026-05-07 13:53 48.34943 11.86536 2348 ft 130 kts 266°
2026-05-07 13:53 48.34836 11.85166 2119 ft 134 kts 266°
2026-05-07 13:54 48.34727 11.83764 1971 ft 135 kts 265°
2026-05-07 13:54 48.34624 11.82371 1806 ft 133 kts 265°
2026-05-07 13:54 48.34516 11.80985 1615 ft 134 kts 267°
2026-05-07 13:54 48.34415 11.79596 1491 ft 131 kts 263°
2026-05-07 13:55 48.34328 11.78422 1482 ft 89 kts 264°
2026-05-07 13:55 48.34275 11.77764 1478 ft 42 kts 264°
2026-05-07 13:55 48.34249 11.77390 1480 ft 28 kts 273°
2026-05-07 13:55 48.34290 11.77152 1484 ft 21 kts 293°
2026-05-07 13:56 48.34343 11.76967 1481 ft 18 kts 293°
2026-05-07 13:56 48.34391 11.76801 1486 ft 16 kts 294°
2026-05-07 13:56 48.34467 11.76705 1476 ft 14 kts 343°
2026-05-07 13:56 48.34555 11.76706 1483 ft 12 kts 28°
2026-05-07 13:57 48.34582 11.76805 1475 ft 9 kts 74°
2026-05-07 13:57 48.34590 11.76888 1486 ft 7 kts 89°
2026-05-07 13:57 48.34592 11.76958 1486 ft 6 kts 86°
2026-05-07 13:57 48.34595 11.77014 1480 ft 5 kts 84°
2026-05-07 13:58 48.34601 11.77087 1486 ft 9 kts 84°
2026-05-07 13:58 48.34609 11.77188 1486 ft 9 kts 83°
2026-05-07 13:58 48.34616 11.77275 1486 ft 7 kts 83°
2026-05-07 13:58 48.34621 11.77344 1481 ft 6 kts 83°
2026-05-07 13:59 48.34626 11.77408 1473 ft 7 kts 84°
2026-05-07 13:59 48.34632 11.77496 1486 ft 10 kts 84°
2026-05-07 13:59 48.34641 11.77618 1483 ft 13 kts 83°
2026-05-07 13:59 48.34653 11.77767 1475 ft 14 kts 83°
2026-05-07 14:00 48.34663 11.77899 1486 ft 12 kts 83°
2026-05-07 14:00 48.34672 11.78015 1486 ft 10 kts 83°
2026-05-07 14:00 48.34680 11.78111 1486 ft 8 kts 83°
2026-05-07 14:00 48.34685 11.78188 1482 ft 7 kts 83°
2026-05-07 14:01 48.34690 11.78247 1486 ft 5 kts 83°
2026-05-07 14:01 48.34695 11.78319 1479 ft 7 kts 83°
2026-05-07 14:01 48.34701 11.78395 1480 ft 9 kts 83°
2026-05-07 14:01 48.34710 11.78504 1475 ft 12 kts 83°
2026-05-07 14:02 48.34721 11.78644 1481 ft 14 kts 83°
2026-05-07 14:02 48.34733 11.78798 1486 ft 16 kts 84°
2026-05-07 14:02 48.34745 11.78965 1486 ft 16 kts 83°
2026-05-07 14:02 48.34758 11.79123 1486 ft 14 kts 83°
2026-05-07 14:03 48.34768 11.79255 1475 ft 12 kts 83°
2026-05-07 14:03 48.34777 11.79369 1482 ft 10 kts 83°
2026-05-07 14:03 48.34784 11.79463 1471 ft 8 kts 83°
2026-05-07 14:03 48.34797 11.79533 1475 ft 6 kts 53°
2026-05-07 14:04 48.34834 11.79560 1483 ft 8 kts
2026-05-07 14:04 48.34889 11.79551 1481 ft 7 kts 353°
2026-05-07 14:04 48.34935 11.79544 1480 ft 6 kts 354°
2026-05-07 14:04 48.34975 11.79537 1473 ft 5 kts 354°
2026-05-07 14:05 48.35015 11.79532 1486 ft 8 kts 359°
2026-05-07 14:05 48.35062 11.79595 1481 ft 10 kts 75°
2026-05-07 14:05 48.35072 11.79702 1474 ft 11 kts 82°
2026-05-07 14:05 48.35081 11.79810 1481 ft 10 kts 84°
2026-05-07 14:06 48.35088 11.79900 1481 ft 8 kts 84°
2026-05-07 14:06 48.35093 11.79970 1486 ft 6 kts 84°
2026-05-07 14:06 48.35098 11.80042 1483 ft 8 kts 84°
2026-05-07 14:06 48.35103 11.80125 1486 ft 7 kts 84°
2026-05-07 14:07 48.35123 11.80187 1471 ft 8 kts 36°
2026-05-07 14:07 48.35186 11.80189 1475 ft 9 kts 355°
2026-05-07 14:07 48.35244 11.80180 1471 ft 8 kts 354°
2026-05-07 14:07 48.35292 11.80172 1478 ft 6 kts 354°
2026-05-07 14:08 48.35336 11.80164 1486 ft 7 kts 353°
2026-05-07 14:08 48.35383 11.80150 1475 ft 7 kts 344°
2026-05-07 14:08 48.35421 11.80131 1474 ft 4 kts 322°
2026-05-07 14:08 48.35427 11.80096 1482 ft 3 kts 277°
2026-05-07 14:09 48.35426 11.80075 1484 ft 1 kts 268°
2026-05-07 14:09 48.35425 11.80056 1477 ft 2 kts 265°
2026-05-07 14:09 48.35424 11.80042 1486 ft 2 kts 264°
2026-05-07 14:09 48.35423 11.80028 1480 ft 2 kts 264°
2026-05-07 14:10 48.35423 11.80024 1481 ft 0 kts 263°